FW7517 Weather Reports


time (UTC)temp
F
wind
direction
speed
knots
gust
knots
rain 1hr
in
rain 24hr
in
rain mn
in
humidity
%
barometer
mb
20260507223230 45 346 3.5 7.0 0.00 0.00 0.00 55 1009.9
20260507222726 45 302 1.7 7.0 0.00 0.00 0.00 55 1009.9
20260507222224 45 324 2.6 6.1 0.00 0.00 0.00 55 1009.9
20260507221701 45 314 1.7 3.5 0.00 0.00 0.00 57 1010.2
20260507221359 45 287 0.9 2.6 0.00 0.00 0.00 57 1010.2
20260507220624 45 306 0.9 2.6 0.00 0.00 0.00 59 1009.9
20260507220055 45 297 0.9 7.8 0.00 0.00 0.00 59 1009.9
20260507215747 45 245 1.7 7.8 0.00 0.00 0.00 57 1009.9
20260507214955 46 307 2.6 2.6 0.00 0.00 0.00 57 1009.9
20260507214435 46 333 1.7 2.6 0.00 0.00 0.00 55 1009.9
20260507213925 46 334 0.9 5.2 0.00 0.00 0.00 55 1009.9
20260507213424 46 320 1.7 6.1 0.00 0.00 0.00 55 1009.9
20260507212922 46 298 1.7 6.1 0.00 0.00 0.00 56 1009.9
20260507212415 46 339 1.7 6.1 0.00 0.00 0.00 56 1009.9
20260507211900 46 175 4.3 6.1 0.00 0.00 0.00 54 1009.9
20260507211354 46 270 1.7 6.1 0.00 0.00 0.00 55 1009.6
20260507210830 46 224 5.2 6.1 0.00 0.00 0.00 54 1009.6
20260507210331 46 219 0.9 5.2 0.00 0.00 0.00 55 1009.9
20260507205823 46 236 0.9 5.2 0.00 0.00 0.00 55 1009.9
20260507205312 47 180 2.6 6.1 0.00 0.00 0.00 53 1009.9
20260507204807 47 214 3.5 6.1 0.00 0.00 0.00 54 1009.9
20260507204255 47 203 2.6 6.1 0.00 0.00 0.00 53 1009.9
20260507203723 47 256 3.5 6.1 0.00 0.00 0.00 55 1009.9
20260507203203 46 339 2.6 3.5 0.00 0.00 0.00 56 1009.6
20260507202647 46 262 2.6 7.0 0.00 0.00 0.00 55 1010.2
20260507202130 46 266 3.5 7.0 0.00 0.00 0.00 55 1009.9
20260507201620 46 270 4.3 12.2 0.00 0.00 0.00 55 1010.2
20260507201118 46 341 1.7 12.2 0.00 0.00 0.00 57 1009.9
20260507200813 46 259 3.5 7.0 0.00 0.00 0.00 57 1009.9
20260507200049 46 357 4.3 7.0 0.00 0.00 0.00 57 1010.2
20260507195543 46 286 1.7 12.2 0.00 0.00 0.00 59 1010.2
20260507195029 46 222 1.7 12.2 0.00 0.00 0.00 58 1010.2
20260507194526 46 210 2.6 7.8 0.00 0.00 0.00 59 1010.2
20260507194024 46 179 2.6 8.7 0.00 0.00 0.00 59 1010.2
20260507193501 46 318 6.1 8.7 0.00 0.00 0.00 57 1010.2
20260507192953 46 338 3.5 5.2 0.00 0.00 0.00 61 1010.6
20260507192423 46 284 3.5 5.2 0.00 0.00 0.00 60 1010.2
20260507192124 46 224 0.9 5.2 0.00 0.00 0.00 60 1010.2
20260507191330 45 274 0.9 5.2 0.00 0.00 0.00 60 1010.6
20260507190801 45 217 4.3 6.1 0.00 0.00 0.00 59 1010.6
20260507190236 45 180 3.5 7.8 0.00 0.00 0.00 58 1010.2
20260507185726 45 302 1.7 7.8 0.00 0.00 0.00 59 1010.6
20260507185223 45 198 2.6 7.8 0.00 0.00 0.00 60 1010.6
20260507184948 45 240 1.7 7.8 0.00 0.00 0.00 60 1010.6
20260507184215 45 335 5.2 7.0 0.00 0.00 0.00 60 1011.0
20260507183700 45 281 1.7 8.7 0.00 0.00 0.00 59 1011.0
20260507183154 44 297 2.6 8.7 0.00 0.00 0.00 59 1011.0
20260507182630 45 10 6.1 8.7 0.00 0.00 0.00 59 1011.0
20260507182131 44 310 1.7 7.0 0.00 0.00 0.00 61 1011.0
20260507181623 44 294 3.5 7.0 0.00 0.00 0.00 62 1011.0
20260507181332 45 340 5.2 7.0 0.00 0.00 0.00 64 1011.0
20260507180548 44 326 2.6 3.5 0.00 0.00 0.00 66 1011.0
20260507180023 44 312 0.9 6.1 0.00 0.00 0.00 67 1011.0
20260507175504 44 289 1.7 6.1 0.00 0.00 0.00 65 1011.0
20260507175001 43 185 2.6 5.2 0.00 0.00 0.00 64 1011.0
20260507174435 43 221 2.6 7.0 0.00 0.00 0.00 69 1011.0
20260507173931 43 161 4.3 7.8 0.00 0.00 0.00 71 1011.3
20260507173906 43 306 3.5 11.3 0.00 0.00 0.00 69 1011.3
20260507172916 44 334 7.0 11.3 0.00 0.00 0.00 65 1011.3
20260507172614 44 341 3.5 8.7 0.00 0.00 0.00 61 1011.3
20260507171849 45 288 6.1 8.7 0.00 0.00 0.00 59 1011.3
20260507171344 45 271 2.6 7.8 0.00 0.00 0.00 59 1011.3
20260507170830 45 282 6.1 12.2 0.00 0.00 0.00 59 1011.3
20260507170331 45 336 3.5 9.6 0.00 0.00 0.00 60 1011.3
20260507165823 45 312 2.6 6.1 0.00 0.00 0.00 61 1011.3
20260507165301 45 346 3.5 7.0 0.00 0.00 0.00 59 1011.3
20260507164737 45 334 5.2 7.0 0.00 0.00 0.00 60 1011.3
20260507164442 45 297 0.9 5.2 0.00 0.00 0.00 63 1011.3
20260507163656 44 187 1.7 3.5 0.00 0.00 0.00 62 1012.0
20260507163342 44 249 2.6 7.0 0.00 0.00 0.00 63 1011.3
20260507162615 45 226 3.5 9.6 0.00 0.00 0.00 63 1011.3
20260507162105 45 337 7.0 9.6 0.00 0.00 0.00 62 1011.7
20260507161559 45 257 2.6 7.8 0.00 0.00 0.00 62 1011.7
20260507161054 44 343 6.1 7.8 0.00 0.00 0.00 63 1012.0
20260507160522 44 315 5.2 7.0 0.00 0.00 0.00 63 1012.0
20260507160015 44 284 3.5 7.8 0.00 0.00 0.00 63 1011.7
20260507155501 44 341 0.9 7.8 0.00 0.00 0.00 62 1011.7
20260507154954 45 324 2.6 7.8 0.00 0.00 0.00 63 1012.0
20260507154429 44 221 3.5 7.8 0.00 0.00 0.00 63 1012.0
20260507153931 43 324 6.1 7.0 0.00 0.00 0.00 64 1012.4
20260507153423 43 256 0.9 9.6 0.00 0.00 0.00 64 1012.0
20260507153133 43 319 4.3 9.6 0.00 0.00 0.00 64 1012.0
20260507152407 44 324 3.5 7.8 0.00 0.00 0.00 63 1012.0
20260507152113 44 265 3.5 7.0 0.00 0.00 0.00 64 1012.0
20260507151323 43 344 4.3 7.8 0.00 0.00 0.00 64 1012.0
20260507151255 44 317 5.2 7.8 0.00 0.00 0.00 64 1012.0
20260507150231 44 303 2.6 6.1 0.00 0.00 0.00 65 1012.0
20260507145730 43 273 1.7 6.1 0.00 0.00 0.00 66 1012.0
20260507145220 43 329 1.7 7.0 0.00 0.00 0.00 65 1012.0
20260507144937 42 317 3.5 7.8 0.00 0.00 0.00 66 1012.0
20260507144423 43 319 4.3 7.8 0.00 0.00 0.00 65 1012.0
20260507143629 42 341 3.5 7.8 0.00 0.00 0.00 66 1012.4
20260507143126 42 339 3.5 11.3 0.00 0.00 0.00 67 1012.4
20260507142608 42 327 2.6 11.3 0.00 0.00 0.00 66 1012.0
20260507142103 42 313 1.7 7.0 0.00 0.00 0.00 67 1012.0
20260507141530 42 343 3.5 7.0 0.00 0.00 0.00 68 1012.0
20260507141019 42 345 3.5 7.8 0.00 0.00 0.00 67 1012.0
20260507140726 42 300 5.2 7.8 0.00 0.00 0.00 68 1012.0
20260507135929 42 334 4.3 6.1 0.00 0.00 0.00 69 1012.0
20260507135422 42 323 2.6 7.0 0.00 0.00 0.00 69 1012.4
20260507134924 42 328 1.7 3.5 0.00 0.00 0.00 69 1012.4
20260507134402 42 229 0.9 2.6 0.00 0.00 0.00 70 1012.4
20260507133836 42 334 0.9 3.5 0.00 0.00 0.00 71 1012.0
20260507133327 41 257 0.9 6.1 0.00 0.00 0.00 72 1012.0
20260507132823 40 250 1.7 7.0 0.00 0.00 0.00 73 1012.0
20260507132321 40 344 2.6 7.0 0.00 0.00 0.00 73 1012.4
20260507131815 40 335 1.7 3.5 0.00 0.00 0.00 74 1012.0
20260507131300 40 224 2.6 3.5 0.00 0.00 0.00 75 1012.0
20260507130754 40 266 0.9 3.5 0.00 0.00 0.00 75 1012.0
20260507130230 40 325 1.7 3.5 0.00 0.00 0.00 75 1012.0
20260507125728 40 10 0.9 3.5 0.00 0.00 0.00 76 1012.0
20260507125223 40 202 1.7 3.5 0.00 0.00 0.00 75 1012.0
20260507124712 40 321 0.9 3.5 0.00 0.00 0.00 77 1012.0
20260507124207 40 230 2.6 3.5 0.00 0.00 0.00 76 1012.0
20260507123922 40 280 0.9 1.7 0.00 0.00 0.00 80 1012.0
20260507123123 39 203 0.9 1.7 0.00 0.00 0.00 80 1012.0
20260507122603 38 206 1.7 1.7 0.00 0.00 0.00 82 1012.0
20260507122035 38 249 0.0 0.9 0.00 0.00 0.00 81 1012.0
20260507121530 37 291 0.0 1.7 0.00 0.00 0.00 84 1012.0
20260507121020 37 265 1.7 1.7 0.00 0.00 0.00 85 1011.7
20260507120516 36 292 0.0 0.9 0.00 0.00 0.00 88 1012.0
20260507120215 36 292 0.0 0.0 0.00 0.00 0.00 89 1012.0
20260507115449 35 292 0.0 0.0 0.00 0.00 0.00 90 1012.0
20260507114942 33 292 0.0 0.0 0.00 0.00 0.00 95 1011.7
20260507114429 31 292 0.0 0.0 0.00 0.00 0.00 99 1012.0
20260507113925 30 292 0.0 0.0 0.00 0.00 0.00 99 1012.0
20260507113423 29 292 0.0 0.0 0.00 0.00 0.00 99 1012.0
20260507112855 28 292 0.0 0.0 0.00 0.00 0.00 99 1011.7
20260507112354 27 292 0.0 0.0 0.00 0.00 0.00 99 1012.0
20260507111823 27 292 0.0 0.0 0.00 0.00 0.00 99 1011.7
20260507111256 27 292 0.0 0.0 0.00 0.00 0.00 99 1011.7
20260507110723 26 292 0.0 0.0 0.00 0.00 0.00 99 1011.7
20260507110214 26 292 0.0 0.0 0.00 0.00 0.00 99 1011.7
20260507105704 26 292 0.0 0.0 0.00 0.00 0.00 99 1011.7
20260507105159 25 292 0.0 0.0 0.00 0.00 0.00 99 1011.7
20260507104915 25 292 0.0 0.0 0.00 0.00 0.00 99 1012.0
20260507104134 25 292 0.0 0.0 0.00 0.00 0.00 99 1011.7
20260507103630 24 292 0.0 0.0 0.00 0.00 0.00 99 1011.7
20260507103124 24 292 0.0 0.0 0.00 0.00 0.00 99 1011.7
20260507102555 24 292 0.0 0.0 0.00 0.00 0.00 99 1011.3
20260507102031 24 291 0.0 0.0 0.00 0.00 0.00 99 1011.3
20260507101755 24 289 0.0 0.0 0.00 0.00 0.00 99 1011.7
20260507101024 24 288 0.0 0.0 0.00 0.00 0.00 99 1011.7
20260507100452 24 288 0.0 0.0 0.00 0.00 0.00 99 1011.3
20260507095945 24 288 0.0 0.0 0.00 0.00 0.00 99 1011.3
20260507095422 24 288 0.0 0.0 0.00 0.00 0.00 99 1011.7
20260507094902 24 288 0.0 0.0 0.00 0.00 0.00 99 1011.3
20260507094402 24 288 0.0 0.0 0.00 0.00 0.00 99 1011.7
20260507093848 24 288 0.0 0.0 0.00 0.00 0.00 99 1011.7
20260507093549 25 288 0.0 0.0 0.00 0.00 0.00 99 1011.7
20260507093047 24 288 0.0 0.0 0.00 0.00 0.00 99 1011.7
20260507092315 24 288 0.0 0.0 0.00 0.00 0.00 99 1011.3
20260507091814 24 288 0.0 0.0 0.00 0.00 0.00 99 1011.7
20260507091301 25 288 0.0 0.0 0.00 0.00 0.00 99 1011.7
20260507090800 25 288 0.0 0.0 0.00 0.00 0.00 99 1011.7
20260507090229 25 288 0.0 0.0 0.00 0.00 0.00 99 1011.7
20260507085953 25 288 0.0 0.0 0.00 0.00 0.00 99 1011.7
20260507085224 25 288 0.0 0.0 0.00 0.00 0.00 99 1011.7
20260507084701 25 288 0.0 0.0 0.00 0.00 0.00 99 1011.7
20260507084135 25 288 0.0 0.0 0.00 0.00 0.00 99 1012.0
20260507083844 25 288 0.0 0.0 0.00 0.00 0.00 99 1011.7
20260507083055 25 288 0.0 0.0 0.00 0.00 0.00 99 1011.7
20260507082744 25 288 0.0 0.0 0.00 0.00 0.00 99 1012.0
20260507082001 26 288 0.0 0.0 0.00 0.00 0.00 99 1012.0
20260507081435 25 288 0.0 0.0 0.00 0.00 0.00 99 1011.7
20260507080925 26 288 0.0 0.0 0.00 0.00 0.00 99 1011.7
20260507080422 26 288 0.0 0.0 0.00 0.00 0.00 99 1011.7
20260507075921 26 288 0.0 0.0 0.00 0.00 0.00 99 1012.0
20260507075636 26 288 0.0 0.0 0.00 0.00 0.00 99 1012.0
20260507074900 26 288 0.0 0.0 0.00 0.00 0.00 99 1012.0
20260507074353 26 288 0.0 0.0 0.00 0.00 0.00 99 1012.0
20260507074050 26 288 0.0 0.0 0.00 0.00 0.00 99 1012.4
20260507073331 26 288 0.0 0.0 0.00 0.00 0.00 99 1012.0
20260507072822 26 288 0.0 0.0 0.00 0.00 0.00 99 1012.0
20260507072312 26 288 0.0 0.0 0.00 0.00 0.00 99 1012.0
20260507071807 26 288 0.0 0.0 0.00 0.00 0.00 99 1012.0
20260507071254 27 288 0.0 0.0 0.00 0.00 0.00 99 1012.0
20260507070723 27 288 0.0 0.0 0.00 0.00 0.00 99 1012.0
20260507070202 26 288 0.0 0.0 0.00 0.00 0.00 99 1012.4
20260507065646 27 288 0.0 0.0 0.00 0.00 0.00 99 1012.0
20260507065129 27 288 0.0 0.0 0.00 0.00 0.00 99 1012.4
20260507064620 26 288 0.0 0.0 0.00 0.00 0.00 99 1012.0
20260507064116 27 288 0.0 0.0 0.00 0.00 0.00 99 1012.4
20260507063555 27 288 0.0 0.0 0.00 0.00 0.00 99 1012.4
20260507063049 28 288 0.0 0.0 0.00 0.00 0.00 99 1012.4
20260507062542 28 288 0.0 0.0 0.00 0.00 0.00 99 1012.4
20260507062251 28 288 0.0 0.0 0.00 0.00 0.00 99 1012.7
20260507061529 28 288 0.0 0.0 0.00 0.00 0.00 99 1012.7
20260507061024 28 288 0.0 0.0 0.00 0.00 0.00 99 1012.7
20260507060521 28 288 0.0 0.0 0.00 0.00 0.00 99 1012.4
20260507060233 28 288 0.0 0.0 0.00 0.00 0.00 99 1012.7
20260507055500 28 288 0.0 0.0 0.00 0.00 0.00 99 1012.7
20260507054949 28 288 0.0 0.0 0.00 0.00 0.00 99 1012.7
20260507054421 28 288 0.0 0.0 0.00 0.00 0.00 99 1012.7
20260507053905 29 288 0.0 0.0 0.00 0.00 0.00 99 1012.7
20260507053359 29 288 0.0 0.0 0.00 0.00 0.00 99 1012.4
20260507052852 29 288 0.0 0.0 0.00 0.00 0.00 99 1012.7
20260507052329 29 288 0.0 0.0 0.00 0.00 0.00 99 1012.4
20260507051830 29 288 0.0 0.0 0.00 0.00 0.00 98 1013.0
20260507051323 30 288 0.0 0.0 0.00 0.00 0.00 97 1012.7
20260507050822 30 288 0.0 0.0 0.00 0.00 0.00 96 1012.7
20260507050258 31 288 0.0 0.0 0.00 0.00 0.00 96 1013.0
20260507045739 31 288 0.0 0.0 0.00 0.00 0.00 96 1012.7
20260507045231 31 288 0.0 0.0 0.00 0.00 0.00 95 1012.7
20260507044724 31 288 0.0 0.0 0.00 0.00 0.00 94 1012.7
20260507044158 31 288 0.0 0.0 0.00 0.00 0.00 95 1012.7
20260507043630 31 288 0.0 0.0 0.00 0.00 0.00 95 1013.0
20260507043115 31 288 0.0 0.0 0.00 0.00 0.00 95 1013.0
20260507042826 31 288 0.0 0.0 0.00 0.00 0.00 94 1013.0
20260507042057 31 288 0.0 0.0 0.00 0.00 0.00 94 1013.0
20260507041549 32 288 0.0 0.0 0.00 0.00 0.00 92 1013.0
20260507041042 32 288 0.0 0.0 0.00 0.00 0.00 92 1013.0
20260507040524 32 288 0.0 0.0 0.00 0.00 0.00 91 1013.0
20260507040002 33 288 0.0 0.0 0.00 0.00 0.00 90 1012.7
20260507035451 33 288 0.0 0.0 0.00 0.00 0.00 88 1013.0
20260507034929 33 288 0.0 0.0 0.00 0.00 0.00 86 1012.7
20260507034417 34 288 0.0 0.0 0.00 0.00 0.00 85 1013.0
20260507033902 35 288 0.0 0.0 0.00 0.00 0.00 84 1012.7
20260507033338 35 288 0.0 0.0 0.00 0.00 0.00 83 1013.0
20260507032830 36 288 0.0 0.0 0.00 0.00 0.00 78 1013.0
20260507032321 36 288 0.0 0.0 0.00 0.00 0.00 77 1013.0
20260507031818 37 287 0.0 0.0 0.00 0.00 0.00 76 1013.0
20260507031315 37 287 0.0 0.0 0.00 0.00 0.00 73 1013.0
20260507030809 37 288 0.0 0.0 0.00 0.00 0.00 73 1013.0
20260507030257 38 288 0.0 0.0 0.00 0.00 0.00 72 1013.0
20260507025738 38 288 0.0 1.7 0.00 0.00 0.00 70 1013.0
20260507025207 38 288 0.0 1.7 0.00 0.00 0.00 69 1013.0
20260507024900 38 289 0.0 0.9 0.00 0.00 0.00 69 1013.0
20260507024341 38 287 0.0 0.9 0.00 0.00 0.00 69 1013.0
20260507023557 38 287 0.0 0.9 0.00 0.00 0.00 70 1013.0
20260507023048 38 289 0.0 0.9 0.00 0.00 0.00 71 1013.0
20260507022522 38 289 0.0 0.9 0.00 0.00 0.00 71 1013.0
20260507022008 39 288 0.0 0.9 0.00 0.00 0.00 69 1013.0
20260507021501 38 290 0.0 0.9 0.00 0.00 0.00 69 1012.7
20260507021203 38 289 0.0 0.9 0.00 0.00 0.00 70 1012.7
20260507020419 39 293 0.9 0.9 0.00 0.00 0.00 70 1012.7
20260507015912 39 293 0.0 0.9 0.00 0.00 0.00 70 1012.7
20260507015357 39 292 0.0 0.9 0.00 0.00 0.00 68 1012.7
20260507014855 39 293 0.0 0.9 0.00 0.00 0.00 68 1013.0
20260507014343 39 308 0.0 0.0 0.00 0.00 0.00 67 1012.7
20260507013823 40 307 0.0 0.9 0.00 0.00 0.00 66 1012.7
20260507013304 40 294 0.0 0.9 0.00 0.00 0.00 66 1012.4
20260507012759 40 298 0.0 1.7 0.00 0.00 0.00 65 1012.7
20260507012232 40 265 0.9 1.7 0.00 0.00 0.00 64 1012.4
20260507011726 40 305 0.9 1.7 0.00 0.00 0.00 64 1012.4
20260507011415 40 317 0.0 1.7 0.00 0.00 0.00 65 1012.4
20260507010634 40 266 0.9 1.7 0.00 0.00 0.00 64 1012.4
20260507010124 40 289 0.9 1.7 0.00 0.00 0.00 64 1012.4
20260507005608 40 310 0.9 2.6 0.00 0.00 0.00 63 1012.4
20260507005332 40 257 1.7 3.5 0.00 0.00 0.00 63 1012.4
20260507004539 41 279 0.9 3.5 0.00 0.00 0.00 62 1012.4
20260507004022 41 321 0.9 2.6 0.00 0.00 0.00 63 1012.4
20260507003452 41 282 0.9 2.6 0.00 0.00 0.00 62 1012.4
20260507002924 41 312 0.9 2.6 0.00 0.00 0.00 61 1012.4
20260507002401 41 347 0.9 3.5 0.00 0.00 0.00 61 1012.4
20260507001850 41 312 1.7 5.2 0.00 0.00 0.00 61 1012.4
20260507001322 42 340 2.6 6.1 0.00 0.00 0.00 60 1012.4
20260507001043 42 306 1.7 6.1 0.00 0.00 0.00 61 1012.4
20260507000302 42 334 3.5 6.1 0.00 0.00 0.00 59 1012.4
20260507000222 42 260 1.7 5.2 0.00 0.00 0.00 59 1012.4
20260506235228 42 311 1.7 8.7 0.00 0.00 0.00 60 1012.0
20260506234721 42 324 1.7 8.7 0.00 0.00 0.00 59 1012.0
20260506234218 42 350 4.3 7.0 0.00 0.00 0.00 58 1012.0
20260506233941 42 319 1.7 6.1 0.00 0.00 0.00 57 1012.0
20260506233424 42 269 2.6 7.0 0.00 0.00 0.00 57 1012.0
20260506232658 42 343 5.2 7.0 0.00 0.00 0.00 56 1012.4
20260506232137 42 316 0.9 5.2 0.00 0.00 0.00 57 1012.4
20260506231623 43 314 2.6 7.8 0.00 0.00 0.00 56 1012.0
20260506231335 43 332 2.6 9.6 0.00 0.00 0.00 56 1012.0
20260506230601 43 357 4.3 9.6 0.00 0.00 0.00 55 1012.0
20260506230051 43 335 2.6 7.8 0.00 0.00 0.00 56 1012.0
20260506225529 43 356 7.0 12.2 0.00 0.00 0.00 54 1012.4
20260506225016 43 338 2.6 12.2 0.00 0.00 0.00 55 1012.4
20260506224456 43 278 2.6 9.6 0.00 0.00 0.00 54 1012.0
20260506223938 44 267 3.5 9.6 0.00 0.00 0.00 54 1012.4